• In United Kingdom
  • List of Countries
  • For 7 days
  • Water Temperature
  • Satellite Maps
  • Weather Map
  • Weather Widgets
  • user-avatar
    Login

    Hourly Weather Hobart

    Today, 18 February, Sunday

    Time Temperature Precipitation Wind Pressure Humidity
    00:00 +16°C° 0.2 mm 3 mps 742 mmHg 87%
    01:00 +16°C° 0.2 mm 3 mps 742 mmHg 88%
    02:00 +14°C° 0.2 mm 3 mps 742 mmHg 89%
    03:00 +14°C° 0.2 mm 3 mps 743 mmHg 90%
    04:00 +15°C° 0 mm 2 mps 743 mmHg 92%
    05:00 +15°C° 0.1 mm 2 mps 743 mmHg 92%
    06:00 +15°C° 0.1 mm 2 mps 744 mmHg 92%
    07:00 +15°C° 0.1 mm 2 mps 745 mmHg 92%
    08:00 +15°C° 0.1 mm 2 mps 745 mmHg 88%
    09:00 +15°C° 0.1 mm 2 mps 745 mmHg 84%
    10:00 +16°C° 0.1 mm 3 mps 746 mmHg 80%
    11:00 +16°C° 0.1 mm 3 mps 746 mmHg 74%
    12:00 +17°C° 0.1 mm 3 mps 746 mmHg 68%
    13:00 +18°C° 0.1 mm 3 mps 746 mmHg 62%
    14:00 +18°C° 0 mm 4 mps 747 mmHg 59%
    15:00 +18°C° 0 mm 4 mps 747 mmHg 56%
    16:00 +18°C° 0 mm 4 mps 747 mmHg 53%
    17:00 +17°C° 0 mm 4 mps 748 mmHg 58%
    18:00 +14°C° 0 mm 4 mps 748 mmHg 63%
    19:00 +13°C° 0 mm 4 mps 749 mmHg 67%
    20:00 +12°C° 0 mm 4 mps 749 mmHg 71%
    21:00 +11°C° 0 mm 4 mps 750 mmHg 75%
    22:00 +10°C° 0 mm 4 mps 751 mmHg 78%
    23:00 +9°C° 0 mm 3 mps 751 mmHg 81%

    Tomorrow, 19 February, Monday

    Time Temperature Precipitation Wind Pressure Humidity
    00:00 +8°C° 0 mm 3 mps 751 mmHg 83%
    01:00 +8°C° 0 mm 3 mps 751 mmHg 86%
    02:00 +7°C° 0 mm 3 mps 752 mmHg 88%
    03:00 +7°C° 0 mm 3 mps 752 mmHg 90%
    04:00 +6°C° 0 mm 2 mps 752 mmHg 92%
    05:00 +7°C° 0 mm 2 mps 753 mmHg 87%
    06:00 +8°C° 0 mm 2 mps 753 mmHg 83%
    07:00 +9°C° 0 mm 2 mps 753 mmHg 78%
    08:00 +12°C° 0 mm 2 mps 754 mmHg 68%
    09:00 +13°C° 0 mm 3 mps 754 mmHg 57%
    10:00 +16°C° 0 mm 3 mps 754 mmHg 46%
    11:00 +17°C° 0 mm 3 mps 754 mmHg 44%
    12:00 +18°C° 0 mm 3 mps 754 mmHg 41%
    13:00 +20°C° 0 mm 4 mps 754 mmHg 38%
    14:00 +19°C° 0 mm 4 mps 754 mmHg 40%
    15:00 +19°C° 0 mm 4 mps 754 mmHg 43%
    16:00 +18°C° 0 mm 4 mps 754 mmHg 45%
    17:00 +15°C° 0 mm 4 mps 754 mmHg 53%
    18:00 +13°C° 0 mm 3 mps 755 mmHg 62%
    19:00 +11°C° 0 mm 3 mps 755 mmHg 70%
    20:00 +10°C° 0 mm 3 mps 755 mmHg 78%
    21:00 +8°C° 0 mm 2 mps 755 mmHg 87%
    22:00 +6°C° 0 mm 2 mps 756 mmHg 95%
    23:00 +6°C° 0 mm 2 mps 756 mmHg 95%

    Day after tomorrow, 20 February, Tuesday

    Time Temperature Precipitation Wind Pressure Humidity
    00:00 +7°C° 0 mm 1 mps 756 mmHg 94%
    01:00 +7°C° 0 mm 1 mps 756 mmHg 94%
    02:00 +7°C° 0 mm 1 mps 756 mmHg 94%
    03:00 +7°C° 0 mm 1 mps 756 mmHg 95%
    04:00 +7°C° 0 mm 1 mps 756 mmHg 95%
    05:00 +8°C° 0 mm 1 mps 756 mmHg 92%
    06:00 +9°C° 0 mm 1 mps 756 mmHg 89%
    07:00 +9°C° 0 mm 1 mps 757 mmHg 86%
    08:00 +12°C° 0 mm 1 mps 757 mmHg 74%
    09:00 +15°C° 0 mm 2 mps 757 mmHg 61%
    10:00 +17°C° 0 mm 2 mps 757 mmHg 48%
    11:00 +19°C° 0 mm 3 mps 756 mmHg 44%
    12:00 +20°C° 0 mm 3 mps 755 mmHg 40%
    13:00 +22°C° 0 mm 3 mps 755 mmHg 35%
    14:00 +22°C° 0 mm 4 mps 754 mmHg 37%
    15:00 +22°C° 0 mm 4 mps 754 mmHg 38%
    16:00 +22°C° 0 mm 4 mps 753 mmHg 39%
    17:00 +19°C° 0 mm 4 mps 753 mmHg 49%
    18:00 +17°C° 0 mm 3 mps 753 mmHg 58%
    19:00 +14°C° 0 mm 3 mps 753 mmHg 67%
    20:00 +12°C° 0 mm 3 mps 753 mmHg 76%
    21:00 +10°C° 0 mm 3 mps 754 mmHg 84%
    22:00 +9°C° 0 mm 3 mps 754 mmHg 93%
    23:00 +8°C° 0 mm 3 mps 753 mmHg 94%

    21 February, Wednesday

    Time Temperature Precipitation Wind Pressure Humidity
    00:00 +8°C° 0 mm 3 mps 753 mmHg 95%
    01:00 +8°C° 0 mm 3 mps 752 mmHg 96%
    02:00 +8°C° 0 mm 3 mps 752 mmHg 96%
    03:00 +8°C° 0 mm 3 mps 752 mmHg 95%
    04:00 +8°C° 0 mm 2 mps 752 mmHg 95%
    05:00 +9°C° 0 mm 2 mps 752 mmHg 90%
    06:00 +10°C° 0 mm 2 mps 752 mmHg 85%
    07:00 +12°C° 0 mm 2 mps 752 mmHg 80%
    08:00 +15°C° 0 mm 1 mps 752 mmHg 69%
    09:00 +19°C° 0 mm 1 mps 752 mmHg 58%
    10:00 +22°C° 0 mm 1 mps 752 mmHg 47%
    11:00 +23°C° 0 mm 1 mps 751 mmHg 42%
    12:00 +25°C° 0 mm 1 mps 751 mmHg 37%
    13:00 +27°C° 0 mm 2 mps 751 mmHg 32%
    14:00 +26°C° 0 mm 2 mps 750 mmHg 34%
    15:00 +25°C° 0 mm 2 mps 750 mmHg 37%
    16:00 +24°C° 0 mm 3 mps 750 mmHg 39%
    17:00 +21°C° 0 mm 2 mps 750 mmHg 49%
    18:00 +19°C° 0 mm 2 mps 750 mmHg 58%
    19:00 +17°C° 0 mm 2 mps 750 mmHg 68%
    20:00 +15°C° 0 mm 1 mps 751 mmHg 77%
    21:00 +14°C° 0 mm 1 mps 751 mmHg 86%
    22:00 +12°C° 0 mm 1 mps 751 mmHg 95%
    23:00 +12°C° 0 mm 1 mps 751 mmHg 96%

    22 February, Thursday

    Time Temperature Precipitation Wind Pressure Humidity
    00:00 +11°C° 0 mm 1 mps 751 mmHg 96%
    01:00 +11°C° 0 mm 1 mps 751 mmHg 97%
    02:00 +11°C° 0 mm 1 mps 751 mmHg 97%
    03:00 +11°C° 0 mm 1 mps 750 mmHg 97%
    04:00 +11°C° 0 mm 1 mps 750 mmHg 97%
    05:00 +11°C° 0 mm 1 mps 751 mmHg 93%
    06:00 +12°C° 0 mm 1 mps 751 mmHg 89%
    07:00 +13°C° 0 mm 1 mps 751 mmHg 84%
    08:00 +18°C° 0 mm 1 mps 752 mmHg 70%
    09:00 +22°C° 0 mm 1 mps 752 mmHg 56%
    10:00 +26°C° 0 mm 1 mps 752 mmHg 42%
    11:00 +27°C° 0 mm 1 mps 751 mmHg 40%
    12:00 +28°C° 0 mm 2 mps 751 mmHg 37%
    13:00 +29°C° 0 mm 2 mps 751 mmHg 34%
    14:00 +28°C° 0 mm 3 mps 751 mmHg 37%
    15:00 +27°C° 0 mm 3 mps 750 mmHg 40%
    16:00 +26°C° 0 mm 3 mps 750 mmHg 44%
    17:00 +24°C° 0 mm 3 mps 750 mmHg 54%
    18:00 +20°C° 0 mm 2 mps 751 mmHg 64%
    19:00 +18°C° 0 mm 2 mps 751 mmHg 74%
    20:00 +17°C° 0 mm 2 mps 751 mmHg 82%
    21:00 +15°C° 0 mm 2 mps 751 mmHg 89%
    22:00 +14°C° 0 mm 1 mps 751 mmHg 96%
    23:00 +13°C° 0 mm 2 mps 751 mmHg 96%

    23 February, Friday

    Time Temperature Precipitation Wind Pressure Humidity
    00:00 +13°C° 0 mm 2 mps 750 mmHg 96%
    01:00 +13°C° 0 mm 2 mps 750 mmHg 96%
    02:00 +13°C° 0 mm 2 mps 750 mmHg 95%
    03:00 +14°C° 0 mm 2 mps 750 mmHg 93%
    04:00 +14°C° 0 mm 2 mps 749 mmHg 92%
    05:00 +15°C° 0 mm 2 mps 749 mmHg 87%
    06:00 +16°C° 0 mm 2 mps 749 mmHg 82%
    07:00 +17°C° 0 mm 2 mps 749 mmHg 77%
    08:00 +19°C° 0 mm 2 mps 749 mmHg 67%
    09:00 +23°C° 0 mm 2 mps 749 mmHg 56%
    10:00 +26°C° 0 mm 2 mps 749 mmHg 45%
    11:00 +25°C° 0.3 mm 2 mps 749 mmHg 53%
    12:00 +24°C° 0.3 mm 2 mps 748 mmHg 61%
    13:00 +23°C° 0.3 mm 2 mps 748 mmHg 69%
    14:00 +21°C° 0.4 mm 2 mps 747 mmHg 72%
    15:00 +21°C° 0.4 mm 2 mps 747 mmHg 75%
    16:00 +20°C° 0.4 mm 2 mps 746 mmHg 78%
    17:00 +19°C° 0 mm 2 mps 746 mmHg 82%
    18:00 +19°C° 0 mm 2 mps 746 mmHg 85%
    19:00 +18°C° 0 mm 2 mps 746 mmHg 89%
    20:00 +17°C° 0 mm 2 mps 745 mmHg 91%
    21:00 +17°C° 0 mm 2 mps 745 mmHg 94%
    22:00 +16°C° 0 mm 2 mps 745 mmHg 97%
    23:00 +16°C° 0 mm 2 mps 744 mmHg 97%
    Show more